FW7787 Weather Reports


Display with metric or nautical units.
time (UTC)temp
F
wind
direction
speed
MPH
gust
MPH
rain 1hr
in
rain 24hr
in
rain mn
in
humidity
%
barometer
mb
20210925204531 82 0 0.0 5.0 0.00 0.21 0.21 87 1014.9
20210925204020 81 91 1.0 5.0 0.00 0.21 0.21 87 1014.9
20210925203524 81 0 0.0 0.0 0.00 0.21 0.21 87 1014.7
20210925203042 81 0 0.0 0.0 0.00 0.21 0.21 87 1014.9
20210925202518 80 0 0.0 0.0 0.00 0.21 0.21 87 1014.9
20210925202018 80 0 0.0 0.0 0.02 0.21 0.21 87 1015.0
20210925201630 80 0 0.0 1.0 0.04 0.21 0.21 89 1015.1
20210925201018 80 0 0.0 4.0 0.06 0.21 0.21 89 1015.2
20210925200517 80 0 0.0 4.0 0.08 0.21 0.21 89 1015.1
20210925200025 80 0 0.0 4.0 0.10 0.21 0.21 89 1015.2
20210925195526 80 0 0.0 2.0 0.11 0.21 0.21 90 1015.2
20210925195017 80 0 0.0 0.0 0.13 0.21 0.21 92 1015.5
20210925194526 79 0 0.0 0.0 0.13 0.21 0.21 91 1015.4
20210925194052 78 0 0.0 0.0 0.14 0.21 0.21 90 1015.2
20210925193519 78 0 0.0 1.0 0.14 0.21 0.21 90 1015.4
20210925193022 78 0 0.0 1.0 0.14 0.21 0.21 89 1015.4
20210925192520 79 0 0.0 2.0 0.14 0.21 0.21 89 1015.5
20210925192019 79 0 0.0 2.0 0.13 0.19 0.19 89 1015.7
20210925191539 79 0 0.0 1.0 0.10 0.16 0.16 89 1015.7
20210925191023 79 0 0.0 1.0 0.09 0.15 0.15 88 1015.4
20210925190518 79 0 0.0 0.0 0.07 0.13 0.13 88 1015.2
20210925190035 79 0 0.0 0.0 0.04 0.10 0.10 87 1015.4
20210925185525 79 0 0.0 0.0 0.05 0.09 0.09 87 1015.7
20210925185024 79 0 0.0 1.0 0.05 0.08 0.08 86 1015.6
20210925184527 80 0 0.0 1.0 0.07 0.07 0.07 85 1015.6
20210925184018 80 293 0.0 1.0 0.07 0.07 0.07 84 1015.7
20210925183519 80 0 0.0 1.0 0.07 0.07 0.07 85 1015.6
20210925183049 81 0 0.0 3.0 0.07 0.07 0.07 85 1015.4
20210925182836 81 94 0.0 3.0 0.06 0.06 0.06 87 1015.5
20210925182016 82 0 0.0 5.0 0.06 0.06 0.06 87 1015.5
20210925181533 82 0 1.0 6.0 0.06 0.06 0.06 86 1015.7
20210925181024 82 117 1.0 6.0 0.06 0.06 0.06 85 1015.7
20210925180517 83 0 1.0 5.0 0.06 0.06 0.06 86 1015.6
20210925180058 83 88 1.0 5.0 0.06 0.06 0.06 83 1015.5
20210925175516 84 0 1.0 5.0 0.03 0.03 0.03 81 1015.6
20210925175016 85 0 1.0 5.0 0.03 0.03 0.03 79 1015.7
20210925174533 86 79 1.0 6.0 0.00 0.00 0.00 75 1015.7
20210925174020 87 339 1.0 6.0 0.00 0.00 0.00 71 1015.7
20210925173520 87 0 1.0 4.0 0.00 0.00 0.00 69 1015.9
20210925173025 88 95 1.0 9.0 0.00 0.00 0.00 69 1015.9
20210925172514 88 130 3.0 9.0 0.00 0.00 0.00 67 1015.8
20210925172020 89 54 2.0 8.0 0.00 0.00 0.00 67 1015.8
20210925171545 90 91 4.0 8.0 0.00 0.00 0.00 64 1016.0
20210925171021 91 120 1.0 5.0 0.00 0.00 0.00 61 1016.0
20210925170519 90 0 0.0 5.0 0.00 0.00 0.00 65 1016.1
20210925170023 89 113 2.0 6.0 0.00 0.00 0.00 66 1016.2
20210925165526 88 0 2.0 6.0 0.00 0.00 0.00 66 1016.3
20210925165032 89 105 2.0 6.0 0.00 0.00 0.00 66 1016.3
20210925164541 88 101 2.0 7.0 0.00 0.00 0.00 67 1016.4
20210925164023 88 117 3.0 7.0 0.00 0.00 0.00 68 1016.5
20210925163518 88 81 0.0 4.0 0.00 0.00 0.00 68 1016.8
20210925163030 88 341 0.0 4.0 0.00 0.00 0.00 68 1016.7
20210925162518 88 0 0.0 5.0 0.00 0.00 0.00 67 1016.7
20210925162018 88 77 0.0 5.0 0.00 0.00 0.00 66 1016.7
20210925161535 89 119 0.0 4.0 0.00 0.00 0.00 61 1016.7
20210925161027 90 134 0.0 4.0 0.00 0.00 0.00 59 1016.7
20210925160526 90 0 0.0 3.0 0.00 0.00 0.00 60 1016.6
20210925160036 90 226 0.0 3.0 0.00 0.00 0.00 59 1016.7
20210925155518 91 0 0.0 3.0 0.00 0.00 0.00 57 1016.8
20210925155018 92 145 0.0 2.0 0.00 0.00 0.00 56 1016.7
20210925154602 92 336 0.0 2.0 0.00 0.00 0.00 57 1016.6
20210925154026 91 0 0.0 1.0 0.00 0.00 0.00 60 1016.6
20210925153535 89 0 0.0 1.0 0.00 0.00 0.00 61 1016.6
20210925153035 88 0 0.0 1.0 0.00 0.00 0.00 62 1016.7
20210925152518 88 0 0.0 1.0 0.00 0.00 0.00 62 1016.7
20210925152038 89 0 0.0 1.0 0.00 0.00 0.00 62 1016.7
20210925151601 89 0 0.0 3.0 0.00 0.00 0.00 64 1016.7
20210925151036 89 289 0.0 3.0 0.00 0.00 0.00 63 1016.7
20210925150526 89 300 0.0 3.0 0.00 0.00 0.00 63 1016.6
20210925150021 89 250 0.0 2.0 0.00 0.00 0.00 63 1016.7
20210925145526 89 101 0.0 2.0 0.00 0.00 0.00 63 1016.6
20210925145018 89 0 0.0 3.0 0.00 0.00 0.00 65 1016.6
20210925144520 89 113 1.0 3.0 0.00 0.00 0.00 63 1016.7
20210925144017 89 0 0.0 2.0 0.00 0.00 0.00 64 1016.8
20210925143517 88 0 0.0 2.0 0.00 0.00 0.00 64 1016.8
20210925143047 88 0 0.0 0.0 0.00 0.00 0.00 66 1016.7
20210925142521 87 0 0.0 0.0 0.00 0.00 0.00 68 1016.6
20210925142023 86 0 0.0 3.0 0.00 0.00 0.00 70 1016.6
20210925141548 86 0 0.0 3.0 0.00 0.00 0.00 69 1016.6
20210925141024 86 307 0.0 3.0 0.00 0.00 0.00 69 1016.5
20210925140528 87 293 0.0 3.0 0.00 0.00 0.00 69 1016.7
20210925140028 87 0 0.0 0.0 0.00 0.00 0.00 70 1016.7
20210925135522 87 0 0.0 0.0 0.00 0.00 0.00 71 1016.7
20210925135017 87 0 0.0 0.0 0.00 0.00 0.00 70 1016.7
20210925134544 86 0 0.0 0.0 0.00 0.00 0.00 71 1016.6
20210925134018 86 0 0.0 0.0 0.00 0.00 0.00 71 1016.7
20210925133518 86 0 0.0 0.0 0.00 0.00 0.00 72 1016.6
20210925133145 85 0 0.0 0.0 0.00 0.00 0.00 74 1016.6
20210925132518 84 0 0.0 0.0 0.00 0.00 0.00 76 1016.5
20210925132018 84 0 0.0 0.0 0.00 0.00 0.00 78 1016.5
20210925131549 84 0 0.0 0.0 0.00 0.00 0.00 79 1016.5
20210925131034 83 0 0.0 0.0 0.00 0.00 0.00 81 1016.6
20210925130522 83 0 0.0 0.0 0.00 0.00 0.00 83 1016.5
20210925130024 82 0 0.0 0.0 0.00 0.00 0.00 86 1016.6
20210925125526 81 0 0.0 0.0 0.00 0.00 0.00 89 1016.6
20210925125023 80 0 0.0 0.0 0.00 0.00 0.00 91 1016.5
20210925124525 80 0 0.0 0.0 0.00 0.00 0.00 91 1016.6
20210925124024 79 0 0.0 0.0 0.00 0.00 0.00 93 1016.5
20210925123518 79 0 0.0 0.0 0.00 0.00 0.00 93 1016.5
20210925123053 79 0 0.0 0.0 0.00 0.00 0.00 93 1016.6
20210925122517 78 0 0.0 0.0 0.00 0.00 0.00 94 1016.5
20210925122018 78 0 0.0 0.0 0.00 0.00 0.00 94 1016.3
20210925121534 78 0 0.0 0.0 0.00 0.00 0.00 95 1016.4
20210925121036 77 0 0.0 0.0 0.00 0.00 0.00 95 1016.3
20210925120519 77 0 0.0 0.0 0.00 0.00 0.00 95 1016.2
20210925120137 76 0 0.0 0.0 0.00 0.00 0.00 95 1016.1
20210925115520 76 0 0.0 0.0 0.00 0.01 0.00 96 1015.9
20210925115019 75 0 0.0 0.0 0.00 0.01 0.00 96 1015.9
20210925114532 74 0 0.0 0.0 0.00 0.01 0.00 96 1015.7
20210925114023 74 0 0.0 0.0 0.00 0.01 0.00 95 1015.7
20210925113530 74 0 0.0 0.0 0.00 0.01 0.00 95 1015.8
20210925113027 74 0 0.0 0.0 0.00 0.01 0.00 95 1015.7
20210925112521 74 0 0.0 0.0 0.00 0.01 0.00 95 1015.7
20210925112041 74 0 0.0 0.0 0.00 0.01 0.00 95 1015.6
20210925111536 74 0 0.0 0.0 0.00 0.01 0.00 95 1015.5
20210925111020 73 0 0.0 0.0 0.00 0.01 0.00 95 1015.4
20210925110520 73 0 0.0 0.0 0.00 0.01 0.00 95 1015.5
20210925110045 73 0 0.0 0.0 0.00 0.01 0.00 95 1015.5
20210925105526 73 0 0.0 0.0 0.00 0.01 0.00 95 1015.4
20210925105019 73 0 0.0 0.0 0.00 0.01 0.00 95 1015.3
20210925104535 73 0 0.0 0.0 0.00 0.01 0.00 95 1015.3
20210925104026 73 0 0.0 0.0 0.00 0.01 0.00 94 1015.2
20210925103518 73 0 0.0 0.0 0.00 0.01 0.00 94 1015.0
20210925103038 73 0 0.0 0.0 0.00 0.01 0.00 94 1015.0
20210925102525 73 0 0.0 0.0 0.00 0.01 0.00 95 1015.0
20210925102016 73 0 0.0 0.0 0.00 0.01 0.00 94 1014.9
20210925101531 73 0 0.0 0.0 0.00 0.01 0.00 94 1014.9
20210925101016 73 0 0.0 0.0 0.00 0.01 0.00 94 1015.0
20210925100519 73 0 0.0 0.0 0.00 0.01 0.00 94 1014.8
20210925100058 73 0 0.0 0.0 0.00 0.01 0.00 94 1014.7
20210925095523 73 0 0.0 0.0 0.00 0.01 0.00 94 1014.6
20210925095031 73 0 0.0 0.0 0.00 0.01 0.00 94 1014.5
20210925094522 73 0 0.0 0.0 0.00 0.01 0.00 94 1014.3
20210925094024 73 0 0.0 0.0 0.00 0.01 0.00 94 1014.4
20210925093516 73 0 0.0 0.0 0.00 0.01 0.00 94 1014.4
20210925093056 74 0 0.0 0.0 0.00 0.01 0.00 94 1014.5
20210925092516 74 0 0.0 0.0 0.00 0.01 0.00 94 1014.4
20210925092024 74 0 0.0 0.0 0.00 0.01 0.00 94 1014.4
20210925091609 74 0 0.0 0.0 0.00 0.01 0.00 94 1014.4
20210925091037 74 0 0.0 0.0 0.00 0.01 0.00 94 1014.3
20210925090519 74 0 0.0 0.0 0.00 0.01 0.00 94 1014.3
20210925090032 74 0 0.0 0.0 0.00 0.01 0.00 94 1014.4
20210925085516 74 0 0.0 0.0 0.00 0.01 0.00 93 1014.4
20210925085018 74 0 0.0 0.0 0.00 0.01 0.00 94 1014.3
20210925084533 74 0 0.0 0.0 0.00 0.01 0.00 93 1014.4
20210925084019 74 0 0.0 0.0 0.00 0.01 0.00 94 1014.4
20210925083519 74 0 0.0 0.0 0.00 0.01 0.00 94 1014.3
20210925083030 74 0 0.0 0.0 0.00 0.01 0.00 93 1014.4
20210925082524 74 0 0.0 0.0 0.00 0.01 0.00 93 1014.4
20210925082025 74 0 0.0 0.0 0.00 0.01 0.00 93 1014.4
20210925081522 74 0 0.0 0.0 0.00 0.01 0.00 93 1014.5
20210925081019 74 0 0.0 0.0 0.00 0.01 0.00 93 1014.5
20210925080520 74 0 0.0 0.0 0.00 0.01 0.00 93 1014.5
20210925080121 74 0 0.0 0.0 0.00 0.01 0.00 93 1014.5
20210925075519 74 0 0.0 0.0 0.00 0.01 0.00 92 1014.4
20210925075016 74 0 0.0 0.0 0.00 0.01 0.00 92 1014.6
20210925074545 74 0 0.0 0.0 0.00 0.01 0.00 92 1014.6
20210925074023 74 0 0.0 0.0 0.00 0.01 0.00 92 1014.5
20210925073516 74 0 0.0 0.0 0.00 0.01 0.00 92 1014.6
20210925073158 74 0 0.0 0.0 0.00 0.01 0.00 92 1014.6
20210925072515 74 0 0.0 0.0 0.00 0.01 0.00 93 1014.7
20210925072028 74 0 0.0 0.0 0.00 0.01 0.00 92 1014.8
20210925071522 74 0 0.0 0.0 0.00 0.01 0.00 92 1014.8
20210925071020 74 0 0.0 0.0 0.00 0.01 0.00 92 1014.8
20210925070519 74 0 0.0 0.0 0.00 0.01 0.00 92 1014.9
20210925070041 74 0 0.0 0.0 0.00 0.01 0.00 92 1015.0
20210925065519 74 0 0.0 0.0 0.00 0.01 0.00 91 1014.9
20210925065024 74 0 0.0 0.0 0.00 0.01 0.00 91 1014.8
20210925064549 75 0 0.0 0.0 0.00 0.01 0.00 92 1014.8
20210925064028 75 0 0.0 0.0 0.00 0.01 0.00 91 1014.8
20210925063534 75 0 0.0 0.0 0.00 0.01 0.00 91 1014.9
20210925063115 75 0 0.0 0.0 0.00 0.01 0.00 91 1014.8
20210925062516 75 0 0.0 0.0 0.00 0.01 0.00 91 1014.9
20210925062028 75 0 0.0 0.0 0.00 0.01 0.00 91 1015.0
20210925061547 75 0 0.0 0.0 0.00 0.01 0.00 90 1015.1
20210925061020 75 0 0.0 0.0 0.00 0.01 0.00 90 1015.0
20210925060526 75 0 0.0 0.0 0.00 0.01 0.00 90 1015.1
20210925060025 75 0 0.0 0.0 0.00 0.01 0.00 89 1015.0
20210925055520 75 0 0.0 0.0 0.00 0.01 0.00 89 1015.1
20210925055019 76 0 0.0 0.0 0.00 0.01 0.00 89 1015.2
20210925054525 76 0 0.0 0.0 0.00 0.01 0.00 88 1015.2
20210925054019 76 0 0.0 0.0 0.00 0.01 0.00 88 1015.1
20210925053528 76 0 0.0 0.0 0.00 0.01 0.00 87 1015.2
20210925053024 76 0 0.0 0.0 0.00 0.01 0.00 87 1015.2
20210925052519 76 0 0.0 1.0 0.00 0.01 0.00 87 1015.2
20210925052038 76 0 0.0 1.0 0.00 0.01 0.00 87 1015.3
20210925051527 77 0 0.0 1.0 0.00 0.01 0.00 86 1015.4
20210925051018 77 0 0.0 1.0 0.00 0.01 0.00 86 1015.4
20210925050520 77 0 0.0 2.0 0.00 0.01 0.00 86 1015.2
20210925050030 77 0 0.0 3.0 0.00 0.01 0.00 86 1015.2
20210925045517 77 51 0.0 3.0 0.00 0.01 0.00 86 1015.4
20210925045036 77 70 0.0 1.0 0.00 0.01 0.00 87 1015.4
20210925044527 77 0 0.0 1.0 0.00 0.01 0.00 88 1015.5
20210925044023 78 0 0.0 1.0 0.00 0.01 0.00 89 1015.6
20210925043516 77 0 0.0 2.0 0.00 0.01 0.00 89 1015.8
20210925043025 77 0 0.0 2.0 0.00 0.01 0.00 90 1015.8
20210925042522 77 0 0.0 6.0 0.00 0.01 0.00 91 1015.9
20210925042018 77 0 0.0 6.0 0.00 0.01 0.00 91 1016.1
20210925041544 77 0 0.0 2.0 0.00 0.01 0.00 91 1016.2
20210925041019 77 0 0.0 0.0 0.00 0.01 0.00 91 1016.3
20210925040538 77 0 0.0 0.0 0.00 0.01 0.00 91 1016.1
20210925040116 77 0 0.0 0.0 0.00 0.01 0.00 90 1016.2
20210925035526 77 0 0.0 0.0 0.00 0.02 0.01 90 1016.2
20210925035017 77 0 0.0 0.0 0.00 0.02 0.01 90 1016.3
20210925034611 77 0 0.0 0.0 0.00 0.02 0.01 90 1016.4
20210925034022 77 0 0.0 0.0 0.00 0.02 0.01 90 1016.4
20210925033526 77 0 0.0 0.0 0.00 0.02 0.01 90 1016.5
20210925033044 77 0 0.0 0.0 0.00 0.02 0.01 90 1016.6
20210925032516 77 0 0.0 0.0 0.00 0.02 0.01 90 1016.5
20210925032020 77 0 0.0 0.0 0.00 0.02 0.01 90 1016.5
20210925031520 77 0 0.0 0.0 0.00 0.02 0.01 90 1016.5
20210925031026 77 0 0.0 0.0 0.00 0.02 0.01 90 1016.3
20210925030519 77 0 0.0 0.0 0.00 0.02 0.01 90 1016.4
20210925030030 77 0 0.0 0.0 0.00 0.02 0.01 90 1016.2
20210925025519 77 0 0.0 0.0 0.00 0.02 0.01 89 1016.2
20210925025022 77 0 0.0 0.0 0.00 0.02 0.01 89 1016.2
20210925024558 77 0 0.0 0.0 0.00 0.02 0.01 89 1016.3
20210925024016 77 0 0.0 0.0 0.00 0.02 0.01 89 1016.5
20210925023527 77 0 0.0 0.0 0.00 0.02 0.01 89 1016.3
20210925023050 78 0 0.0 0.0 0.00 0.02 0.01 89 1016.2
20210925022522 78 0 0.0 0.0 0.00 0.02 0.01 89 1016.1
20210925022021 77 0 0.0 0.0 0.00 0.02 0.01 89 1016.2
20210925021540 77 0 0.0 0.0 0.00 0.02 0.01 88 1016.2
20210925021020 78 0 0.0 0.0 0.00 0.02 0.01 88 1016.1
20210925020519 78 0 0.0 0.0 0.00 0.02 0.01 88 1015.9
20210925020022 78 0 0.0 0.0 0.00 0.02 0.01 88 1015.7
20210925015517 78 0 0.0 0.0 0.00 0.07 0.01 87 1015.8
20210925015019 78 0 0.0 0.0 0.00 0.07 0.01 87 1015.7
20210925014529 78 0 0.0 0.0 0.00 0.07 0.01 87 1015.6
20210925014019 78 0 0.0 0.0 0.00 0.07 0.01 87 1015.6
20210925013541 79 0 0.0 0.0 0.00 0.07 0.01 87 1015.5
20210925013031 79 0 0.0 0.0 0.00 0.07 0.01 87 1015.5
20210925012515 79 0 0.0 0.0 0.00 0.07 0.01 87 1015.5
20210925012035 79 0 0.0 0.0 0.00 0.07 0.01 87 1015.5
20210925011553 80 0 0.0 0.0 0.00 0.07 0.01 87 1015.5
20210925011018 80 0 0.0 0.0 0.00 0.07 0.01 87 1015.6
20210925010517 80 0 0.0 0.0 0.00 0.07 0.01 87 1015.6
20210925010022 80 0 0.0 0.0 0.00 0.07 0.01 87 1015.6
20210925005516 80 0 0.0 0.0 0.00 0.13 0.01 87 1015.8
20210925005024 80 0 0.0 0.0 0.00 0.13 0.01 87 1015.6
20210925004531 80 0 0.0 0.0 0.00 0.13 0.01 87 1015.6
20210925004028 80 0 0.0 0.0 0.00 0.13 0.01 87 1015.6
20210925003529 79 0 0.0 0.0 0.00 0.13 0.01 87 1015.5
20210925003046 79 0 0.0 0.0 0.00 0.13 0.01 87 1015.5
20210925002516 79 0 0.0 0.0 0.00 0.13 0.01 87 1015.4
20210925002019 79 0 0.0 0.0 0.00 0.13 0.01 86 1015.3
20210925001604 79 0 0.0 0.0 0.00 0.13 0.01 86 1015.4
20210925001018 79 0 0.0 0.0 0.00 0.13 0.01 86 1015.3
20210925000518 80 0 0.0 0.0 0.00 0.13 0.01 86 1015.3
20210925000038 80 0 0.0 0.0 0.00 0.13 0.01 86 1015.3
20210924235523 80 0 0.0 0.0 0.00 0.58 0.01 86 1015.3
20210924235048 79 0 0.0 0.0 0.00 0.58 0.01 86 1015.1
20210924234528 80 0 0.0 0.0 0.00 0.58 0.01 86 1014.9
20210924234037 80 0 0.0 0.0 0.00 0.58 0.01 85 1015.0
20210924233520 80 0 0.0 0.0 0.00 0.58 0.01 85 1015.0
20210924233033 80 0 0.0 0.0 0.00 0.58 0.01 85 1014.9
20210924232522 80 0 0.0 0.0 0.00 0.58 0.01 85 1014.9
20210924232019 80 0 0.0 0.0 0.00 0.58 0.01 84 1014.8
20210924231533 80 0 0.0 0.0 0.00 0.58 0.01 84 1014.7
20210924231022 80 0 0.0 0.0 0.00 0.58 0.01 84 1014.7
20210924230520 80 0 0.0 0.0 0.00 0.58 0.01 83 1014.7
20210924230034 81 0 0.0 0.0 0.00 0.58 0.01 83 1014.6
20210924225516 81 0 0.0 0.0 0.00 0.86 0.01 83 1014.6
20210924225023 81 0 0.0 0.0 0.00 0.86 0.01 83 1014.6
20210924224522 81 0 0.0 0.0 0.00 0.86 0.01 82 1014.6
20210924224018 81 0 0.0 0.0 0.00 0.86 0.01 82 1014.6
20210924223516 81 0 0.0 0.0 0.00 0.86 0.01 82 1014.7
20210924223033 81 0 0.0 0.0 0.00 0.86 0.01 82 1014.5
20210924222516 81 0 0.0 0.0 0.00 0.86 0.01 82 1014.5
20210924222023 81 0 0.0 0.0 0.00 0.86 0.01 81 1014.4
20210924221713 81 0 0.0 0.0 0.00 0.86 0.01 81 1014.5
20210924221019 81 0 0.0 2.0 0.00 0.86 0.01 81 1014.5
20210924220546 81 0 0.0 2.0 0.00 0.86 0.01 81 1014.5
20210924220036 81 0 0.0 0.0 0.00 0.86 0.01 80 1014.4
20210924215548 81 0 0.0 1.0 0.00 0.86 0.01 80 1014.5
20210924215024 81 0 0.0 2.0 0.00 0.86 0.01 80 1014.4
20210924214536 81 0 0.0 2.0 0.00 0.86 0.01 80 1014.4
20210924214026 81 256 0.0 2.0 0.00 0.86 0.01 80 1014.5
20210924213519 81 0 0.0 4.0 0.00 0.86 0.01 81 1014.4
20210924213024 81 285 1.0 4.0 0.00 0.86 0.01 80 1014.2
20210924212518 81 0 0.0 2.0 0.00 0.86 0.01 80 1014.1
20210924212020 81 0 0.0 2.0 0.00 0.86 0.01 80 1014.1
20210924211527 81 0 0.0 2.0 0.00 0.86 0.01 80 1014.2
20210924211018 81 0 0.0 2.0 0.00 0.86 0.01 80 1014.3
20210924210534 81 0 0.0 2.0 0.00 0.86 0.01 81 1014.3
20210924210026 81 0 0.0 0.0 0.00 0.86 0.01 81 1014.1
20210924205528 81 0 0.0 1.0 0.00 0.86 0.01 81 1014.2
20210924205038 80 0 0.0 1.0 0.00 0.86 0.01 81 1014.2